�������l�o���
Date,Time,MP-1(��Sv/h),MP-2(��Sv/h),MP-3(��Sv/h),MP-4(��Sv/h),MP-5(��Sv/h),MP-6(��Sv/h),MP-7(��Sv/h),MP-8(��Sv/h),����,����(m/s),���J
2022/11/25,00:00,0.558,0.807,0.511,1.017,0.694,0.330,0.579,0.548,�k��,6.5,��
2022/11/25,00:10,0.557,0.809,0.511,1.019,0.694,0.330,0.580,0.549,�k��,5.4,��
2022/11/25,00:20,0.559,0.806,0.510,1.018,0.695,0.329,0.580,0.549,�k��,5.4,��
2022/11/25,00:30,0.559,0.807,0.511,1.020,0.694,0.329,0.579,0.549,���k��,5.2,��
2022/11/25,00:40,0.558,0.809,0.510,1.018,0.696,0.329,0.579,0.548,�k��,8.5,��
2022/11/25,00:50,0.559,0.809,0.510,1.018,0.697,0.330,0.580,0.548,���k��,7.5,��
2022/11/25,01:00,0.559,0.807,0.512,1.019,0.695,0.329,0.578,0.547,���k��,8.0,��
2022/11/25,01:10,0.557,0.806,0.512,1.019,0.697,0.329,0.579,0.550,���k��,6.0,��
2022/11/25,01:20,0.559,0.808,0.510,1.016,0.696,0.328,0.580,0.550,�k��,5.8,��
2022/11/25,01:30,0.559,0.807,0.511,1.017,0.694,0.329,0.579,0.549,���k��,5.7,��
2022/11/25,01:40,0.559,0.807,0.510,1.018,0.694,0.330,0.579,0.549,�k��,4.6,��
2022/11/25,01:50,0.558,0.807,0.511,1.018,0.695,0.331,0.579,0.551,�k��,5.6,��
2022/11/25,02:00,0.559,0.807,0.510,1.017,0.696,0.329,0.581,0.548,�k��,5.1,��
2022/11/25,02:10,0.560,0.805,0.510,1.019,0.697,0.330,0.580,0.547,�k��,4.4,��
2022/11/25,02:20,0.560,0.808,0.512,1.019,0.695,0.329,0.579,0.547,�k��,5.3,��
2022/11/25,02:30,0.557,0.808,0.510,1.020,0.696,0.330,0.580,0.547,�k�k��,6.6,��
2022/11/25,02:40,0.558,0.807,0.511,1.018,0.697,0.328,0.580,0.547,�k�k��,6.6,��
2022/11/25,02:50,0.557,0.806,0.512,1.018,0.695,0.329,0.580,0.550,�k�k��,6.8,��
2022/11/25,03:00,0.560,0.807,0.512,1.018,0.696,0.330,0.579,0.548,�k,7.5,��
2022/11/25,03:10,0.558,0.806,0.511,1.019,0.697,0.328,0.579,0.549,�k�k��,7.9,��
2022/11/25,03:20,0.558,0.809,0.510,1.019,0.698,0.329,0.580,0.548,�k�k��,8.9,��
2022/11/25,03:30,0.558,0.807,0.511,1.021,0.696,0.329,0.582,0.549,�k�k��,8.0,��
2022/11/25,03:40,0.559,0.808,0.511,1.018,0.697,0.329,0.580,0.549,�k�k��,5.9,��
2022/11/25,03:50,0.558,0.808,0.510,1.019,0.697,0.330,0.581,0.547,�k��,5.2,��
2022/11/25,04:00,0.560,0.806,0.510,1.019,0.697,0.328,0.581,0.547,�k��,5.2,��
2022/11/25,04:10,0.557,0.806,0.511,1.018,0.696,0.329,0.580,0.548,�k��,2.3,��
2022/11/25,04:20,0.559,0.806,0.510,1.019,0.697,0.328,0.582,0.548,�k��,4.1,��
2022/11/25,04:30,0.558,0.808,0.511,1.020,0.696,0.329,0.579,0.549,�k�k��,5.1,��
2022/11/25,04:40,0.559,0.804,0.510,1.019,0.697,0.330,0.579,0.549,�k��,4.8,��
2022/11/25,04:50,0.558,0.807,0.509,1.019,0.696,0.330,0.580,0.548,�k��,4.1,��
2022/11/25,05:00,0.559,0.807,0.511,1.019,0.699,0.329,0.581,0.549,�k��,4.8,��
2022/11/25,05:10,0.558,0.807,0.508,1.019,0.698,0.330,0.580,0.549,�k��,4.1,��
2022/11/25,05:20,0.556,0.806,0.512,1.016,0.697,0.328,0.579,0.549,�k�k��,4.6,��
2022/11/25,05:30,0.557,0.807,0.510,1.021,0.697,0.330,0.580,0.548,�k��,2.5,��
2022/11/25,05:40,0.557,0.806,0.510,1.022,0.699,0.329,0.580,0.549,�k��,3.5,��
2022/11/25,05:50,0.557,0.807,0.509,1.017,0.697,0.329,0.579,0.549,�k��,4.0,��
2022/11/25,06:00,0.558,0.806,0.511,1.018,0.696,0.329,0.579,0.549,�k��,5.0,��
2022/11/25,06:10,0.556,0.808,0.511,1.020,0.697,0.329,0.578,0.548,�k��,4.1,��
2022/11/25,06:20,0.556,0.806,0.509,1.019,0.696,0.329,0.578,0.549,���k��,3.1,��
2022/11/25,06:30,0.558,0.806,0.509,1.019,0.698,0.328,0.579,0.548,���k��,4.4,��
2022/11/25,06:40,0.557,0.805,0.510,1.017,0.696,0.329,0.579,0.548,���k��,4.4,��
2022/11/25,06:50,0.556,0.807,0.509,1.019,0.699,0.328,0.579,0.548,��,3.5,��
2022/11/25,07:00,0.556,0.806,0.512,1.020,0.698,0.328,0.580,0.548,���k��,2.3,��
2022/11/25,07:10,0.557,0.808,0.510,1.017,0.697,0.328,0.578,0.547,�k��,2.9,��
2022/11/25,07:20,0.556,0.806,0.509,1.021,0.699,0.329,0.577,0.546,�k��,3.1,��
2022/11/25,07:30,0.557,0.807,0.510,1.017,0.698,0.328,0.580,0.546,�k��,2.9,��
2022/11/25,07:40,0.557,0.808,0.511,1.020,0.697,0.329,0.580,0.548,�k��,2.6,��
2022/11/25,07:50,0.557,0.806,0.510,1.021,0.697,0.330,0.578,0.549,�k�k��,3.0,��
2022/11/25,08:00,0.558,0.805,0.509,1.020,0.699,0.329,0.579,0.550,�k��,3.3,��
2022/11/25,08:10,0.560,0.806,0.508,1.019,0.696,0.329,0.579,0.549,�k��,2.6,��
2022/11/25,08:20,0.559,0.809,0.510,1.020,0.698,0.328,0.580,0.548,�k��,2.3,��
2022/11/25,08:30,0.560,0.807,0.510,1.019,0.697,0.328,0.580,0.549,�k�k��,2.5,��
2022/11/25,08:40,0.560,0.805,0.510,1.019,0.697,0.327,0.579,0.546,�k�k��,2.0,��
2022/11/25,08:50,0.559,0.806,0.511,1.020,0.699,0.329,0.580,0.548,�k,3.3,��
2022/11/25,09:00,0.557,0.807,0.509,1.020,0.699,0.329,0.580,0.548,�k�k��,2.6,��
2022/11/25,09:10,0.559,0.805,0.511,1.021,0.699,0.330,0.579,0.550,�k��,2.8,��
2022/11/25,09:20,0.559,0.805,0.510,1.019,0.698,0.330,0.580,0.548,�k�k��,2.0,��
2022/11/25,09:30,0.560,0.805,0.511,1.020,0.697,0.329,0.578,0.548,�k��,2.3,��
2022/11/25,09:40,0.558,0.804,0.512,1.020,0.699,0.329,0.579,0.548,�k�k��,3.1,��
2022/11/25,09:50,0.559,0.806,0.510,1.021,0.699,0.330,0.580,0.548,�k�k��,3.6,��
2022/11/25,10:00,0.559,0.804,0.512,1.019,0.699,0.330,0.579,0.549,�k�k��,2.6,��
2022/11/25,10:10,0.559,0.808,0.512,1.021,0.698,0.331,0.579,0.549,�k�k��,3.9,��
2022/11/25,10:20,0.558,0.807,0.511,1.019,0.701,0.330,0.577,0.549,�k��,3.0,��
2022/11/25,10:30,0.559,0.805,0.512,1.022,0.701,0.329,0.579,0.549,�k,3.1,��
2022/11/25,10:40,0.558,0.806,0.511,1.019,0.701,0.330,0.578,0.550,�k�k��,2.6,��
2022/11/25,10:50,0.558,0.806,0.511,1.021,0.700,0.329,0.579,0.551,�k��,3.5,��
2022/11/25,11:00,0.561,0.807,0.511,1.022,0.699,0.328,0.579,0.550,�k��,4.2,��
2022/11/25,11:10,0.558,-,0.511,1.022,0.698,0.329,0.578,0.550,�k��,4.5,��
2022/11/25,11:20,0.559,-,0.511,1.023,0.698,0.329,0.581,0.550,�k��,4.1,��
2022/11/25,11:30,0.558,-,0.510,1.021,0.699,0.328,0.579,0.549,�k��,4.4,��
2022/11/25,11:40,0.558,-,0.512,1.022,0.699,0.328,0.579,0.549,���k��,4.5,��
2022/11/25,11:50,0.559,-,0.512,1.023,0.699,0.328,0.579,0.550,���k��,3.4,��
2022/11/25,12:00,0.560,-,0.512,1.021,0.701,0.329,0.578,0.551,���k��,3.0,��
2022/11/25,12:10,0.560,-,0.512,1.024,0.699,0.332,0.580,0.549,��,3.2,��
2022/11/25,12:20,0.559,-,0.513,1.021,0.698,0.331,0.579,0.550,���k��,2.3,��
2022/11/25,12:30,0.558,-,0.512,1.023,0.703,0.330,0.580,0.550,��,1.9,��
2022/11/25,12:40,0.558,-,0.512,1.022,0.700,0.332,0.579,0.546,���쓌,2.9,��
2022/11/25,12:50,0.560,-,0.511,1.019,0.702,0.331,0.579,0.546,���쓌,2.3,��
2022/11/25,13:00,0.561,-,0.510,1.021,0.701,0.330,0.579,0.549,��,2.0,��
2022/11/25,13:10,0.560,-,0.512,1.024,0.698,0.330,0.581,0.549,���쓌,2.0,��
2022/11/25,13:20,0.561,-,0.509,1.022,0.700,0.330,0.581,0.547,��,2.3,��
2022/11/25,13:30,0.559,0.809,0.511,1.020,0.701,0.330,0.580,0.549,��,1.9,��
2022/11/25,13:40,0.560,0.808,0.512,1.025,0.699,0.329,0.581,0.547,���쓌,2.3,��
2022/11/25,13:50,0.560,0.810,0.512,1.022,0.699,0.330,0.581,0.548,��,2.5,��
2022/11/25,14:00,0.561,0.810,0.512,1.023,0.702,0.330,0.580,0.548,���쓌,2.3,��
2022/11/25,14:10,0.560,0.810,0.509,1.023,0.701,0.330,0.581,0.547,���쓌,2.9,��
2022/11/25,14:20,0.561,0.810,0.512,1.023,0.704,0.331,0.581,0.548,���쓌,3.8,��
2022/11/25,14:30,0.559,0.811,0.512,1.024,0.706,0.330,0.581,0.547,���쓌,2.6,��
2022/11/25,14:40,0.560,0.808,0.512,1.023,0.704,0.330,0.580,0.549,���쓌,2.0,��
2022/11/25,14:50,0.560,0.810,0.512,1.021,0.705,0.330,0.580,0.547,���쓌,2.2,��
2022/11/25,15:00,0.561,0.811,0.513,1.022,0.705,0.330,0.579,0.548,���쓌,1.5,��
2022/11/25,15:10,0.561,0.814,0.513,1.024,0.701,0.331,0.581,0.549,�쓌,1.7,��
2022/11/25,15:20,0.560,0.813,0.513,1.023,0.703,0.331,0.582,0.550,�쓌,2.6,��
2022/11/25,15:30,0.560,0.815,0.513,1.022,0.701,0.331,0.582,0.551,�쓌,2.0,��
2022/11/25,15:40,0.560,0.814,0.513,1.021,0.702,0.331,0.581,0.550,�쓌,1.7,��
2022/11/25,15:50,0.559,0.815,0.513,1.023,0.701,0.331,0.582,0.550,�쓌,2.6,��
2022/11/25,16:00,0.560,0.816,0.513,1.022,0.703,0.329,0.580,0.552,�쓌,2.8,��
2022/11/25,16:10,0.559,0.817,0.514,1.020,0.702,0.330,0.581,0.549,�쓌,2.6,��
2022/11/25,16:20,0.560,0.814,0.513,1.024,0.702,0.330,0.581,0.551,�쓌,3.5,��
2022/11/25,16:30,0.563,0.816,0.513,1.022,0.702,0.330,0.581,0.550,��쓌,3.1,��
2022/11/25,16:40,0.561,0.816,0.514,1.023,0.702,0.331,0.581,0.550,��쓌,2.3,��
2022/11/25,16:50,0.563,0.816,0.515,1.023,0.704,0.330,0.581,0.550,��쓌,2.8,��
2022/11/25,17:00,0.562,0.816,0.514,1.022,0.705,0.330,0.581,0.550,��쓌,4.4,��
2022/11/25,17:10,0.562,0.817,0.514,1.022,0.706,0.329,0.582,0.552,��쓌,3.5,��
2022/11/25,17:20,0.562,0.819,0.514,1.023,0.704,0.332,0.580,0.550,��,3.8,��
2022/11/25,17:30,0.563,0.818,0.514,1.022,0.703,0.330,0.580,0.551,��,4.4,��
2022/11/25,17:40,0.562,0.817,0.514,1.022,0.705,0.330,0.581,0.550,��쓌,4.4,��
2022/11/25,17:50,0.563,0.818,0.514,1.023,0.704,0.330,0.580,0.551,��,4.2,��
2022/11/25,18:00,0.562,0.817,0.513,1.022,0.703,0.330,0.581,0.550,��,3.6,��
2022/11/25,18:10,0.562,0.816,0.513,1.024,0.705,0.329,0.581,0.549,��,4.4,��
2022/11/25,18:20,0.562,0.816,0.512,1.021,0.706,0.330,0.581,0.550,��,3.9,��
2022/11/25,18:30,0.561,0.816,0.512,1.020,0.705,0.330,0.581,0.550,��,4.3,��
2022/11/25,18:40,0.564,0.817,0.514,1.021,0.704,0.329,0.581,0.549,��쐼,4.0,��
2022/11/25,18:50,0.561,0.814,0.515,1.022,0.706,0.329,0.583,0.548,��,4.2,��
2022/11/25,19:00,0.564,0.815,0.514,1.021,0.706,0.331,0.583,0.550,��,4.5,��
2022/11/25,19:10,0.560,0.816,0.513,1.023,0.704,0.330,0.578,0.549,��쐼,4.7,��
2022/11/25,19:20,0.561,0.816,0.513,1.025,0.707,0.331,0.580,0.549,��,5.2,��
2022/11/25,19:30,0.561,0.816,0.515,1.024,0.706,0.330,0.580,0.548,��,5.2,��
2022/11/25,19:40,0.561,0.814,0.513,1.025,0.704,0.329,0.580,0.549,��,5.5,��
2022/11/25,19:50,0.562,0.814,0.514,1.022,0.706,0.330,0.580,0.551,��,5.7,��
2022/11/25,20:00,0.561,0.816,0.513,1.025,0.704,0.329,0.582,0.549,��,5.7,��
2022/11/25,20:10,0.561,0.814,0.513,1.022,0.705,0.329,0.580,0.550,��쐼,5.9,��
2022/11/25,20:20,0.562,0.815,0.513,1.021,0.705,0.330,0.580,0.549,��쐼,6.2,��
2022/11/25,20:30,0.562,0.816,0.515,1.023,0.706,0.331,0.581,0.550,��쐼,6.9,��
2022/11/25,20:40,0.562,0.814,0.513,1.025,0.706,0.330,0.581,0.550,��,7.2,��
2022/11/25,20:50,0.560,0.813,0.514,1.023,0.703,0.329,0.581,0.548,��,7.7,��
2022/11/25,21:00,0.563,0.815,0.512,1.023,0.705,0.330,0.579,0.550,��쐼,7.3,��
2022/11/25,21:10,0.562,0.813,0.513,1.022,0.705,0.330,0.580,0.551,��쐼,7.2,��
2022/11/25,21:20,0.561,0.814,0.513,1.022,0.706,0.330,0.580,0.550,��쐼,7.6,��
2022/11/25,21:30,0.562,0.813,0.514,1.025,0.705,0.330,0.579,0.549,��쐼,8.0,��
2022/11/25,21:40,0.561,0.815,0.513,1.022,0.705,0.330,0.580,0.550,��쐼,8.9,��
2022/11/25,21:50,0.561,0.813,0.513,1.023,0.706,0.331,0.582,0.550,��,9.5,��
2022/11/25,22:00,0.562,0.814,0.514,1.023,0.705,0.331,0.581,0.549,��,9.5,��
2022/11/25,22:10,0.563,0.814,0.514,1.024,0.706,0.331,0.581,0.549,��,9.9,��
2022/11/25,22:20,0.563,0.814,0.513,1.021,0.704,0.330,0.581,0.549,��,9.6,��
2022/11/25,22:30,0.561,0.815,0.512,1.025,0.706,0.332,0.582,0.550,��쐼,9.7,��
2022/11/25,22:40,0.560,0.813,0.513,1.022,0.705,0.330,0.581,0.550,��,9.6,��
2022/11/25,22:50,0.562,0.814,0.513,1.025,0.706,0.330,0.581,0.548,��,9.5,��
2022/11/25,23:00,0.561,0.814,0.514,1.022,0.705,0.330,0.582,0.550,��,9.2,��
2022/11/25,23:10,0.562,0.813,0.515,1.022,0.705,0.330,0.582,0.549,��,8.6,��
2022/11/25,23:20,0.561,0.814,0.513,1.021,0.706,0.331,0.581,0.550,��,9.1,��
2022/11/25,23:30,0.562,0.815,0.513,1.021,0.705,0.331,0.583,0.551,��,8.2,��
2022/11/25,23:40,0.562,0.812,0.514,1.023,0.707,0.332,0.582,0.550,��,9.7,��
2022/11/25,23:50,0.563,0.813,0.515,1.022,0.706,0.331,0.582,0.551,��,9.6,��
